#timestamp,LO_Frequency,Hit,Temp,Hum 
1478070015.3,286047069.3,N,0.0,0.0
1478070035.1,286047072.5,N,0.0,0.0
1478070036.0,286047072.5,N,0.0,0.0
1478070055.8,286047074.6,N,0.0,0.0
1478070075.7,286047074.6,N,0.0,0.0
1478070095.5,286047074.3,N,0.0,0.0
1478070115.3,286047074.8,N,0.0,0.0
1478070135.2,286047070.5,N,0.0,0.0
1478070155.0,286047073.9,N,0.0,0.0
1478070155.9,286047073.9,N,0.0,0.0
1478070175.7,286047073.0,N,0.0,0.0
1478070195.6,286047068.6,N,0.0,0.0
1478070215.4,286047070.6,N,0.0,0.0
1478070235.2,286047070.4,N,0.0,0.0
1478070255.1,286047072.0,N,0.0,0.0
1478070256.0,286047072.0,N,0.0,0.0
1478070275.8,286047072.0,N,0.0,0.0
1478070295.7,286047072.5,N,0.0,0.0
1478070315.5,286047072.5,N,0.0,0.0
1478070335.3,286047072.4,N,0.0,0.0
1478070355.2,286047073.9,N,0.0,0.0
1478070375.9,286047074.4,N,0.0,0.0
1478070395.7,286047072.6,N,0.0,0.0
1478070415.6,286047073.0,N,0.0,0.0
1478070435.4,286047070.8,N,0.0,0.0
1478070455.2,286047072.9,N,0.0,0.0
1478070475.1,286047068.5,N,0.0,0.0
1478070476.0,286047068.5,N,0.0,0.0
1478070495.8,286047071.5,N,0.0,0.0
1478070515.6,286047070.4,N,0.0,0.0
1478070535.5,286047072.1,N,0.0,0.0
1478070555.3,286047071.8,N,0.0,0.0
1478070575.1,286047070.1,N,0.0,0.0
1478070595.9,286047069.5,N,0.0,0.0
1478070615.7,286047073.2,N,0.0,0.0
1478070635.6,286047074.7,N,0.0,0.0
1478070655.4,286047069.2,N,0.0,0.0
1478070675.2,286047069.2,N,0.0,0.0
1478070695.1,286047068.0,N,0.0,0.0
1478070696.0,286047068.0,N,0.0,0.0
1478070715.8,286047069.9,N,0.0,0.0
1478070735.6,286047068.7,N,0.0,0.0
1478070755.5,286047071.1,N,0.0,0.0
1478070775.3,286047071.3,N,0.0,0.0
1478070795.1,286047070.1,N,0.0,0.0
1478070815.9,286047071.8,N,0.0,0.0
1478070835.7,286047071.7,N,0.0,0.0
1478070855.5,286047074.4,N,0.0,0.0
1478070875.4,286047074.1,N,0.0,0.0
1478070895.2,286047074.3,N,0.0,0.0
1478070915.0,286047070.2,N,0.0,0.0
1478070915.9,286047070.2,N,0.0,0.0
1478070935.8,286047071.5,N,0.0,0.0
1478070955.6,286047070.2,N,0.0,0.0
1478070975.5,286047072.0,N,0.0,0.0
1478070995.3,286047072.5,N,0.0,0.0
1478071015.1,286047068.5,N,0.0,0.0
1478071035.9,286047069.5,N,0.0,0.0
1478071055.7,286047065.8,N,0.0,0.0
1478071075.5,286047065.6,N,0.0,0.0
1478071095.4,286047068.3,N,0.0,0.0
1478071115.2,286047067.3,N,0.0,0.0
1478071135.0,286047069.7,N,0.0,0.0
1478071135.9,286047069.7,N,0.0,0.0
1478071155.8,286047067.5,N,0.0,0.0
1478071175.6,286047070.3,N,0.0,0.0
1478071195.4,286047070.1,N,0.0,0.0
1478071215.3,286047072.5,N,0.0,0.0
1478071235.1,286047073.0,N,0.0,0.0
1478071255.8,286047072.4,N,0.0,0.0
1478071275.7,286047068.6,N,0.0,0.0
1478071295.5,286047068.5,N,0.0,0.0
1478071315.3,286047072.8,N,0.0,0.0
1478071335.2,286047072.9,N,0.0,0.0
1478071355.0,286047071.4,N,0.0,0.0
1478071355.9,286047071.4,N,0.0,0.0
1478071375.8,286047069.4,N,0.0,0.0
1478071395.6,286047067.8,N,0.0,0.0
1478071415.4,286047069.6,N,0.0,0.0
1478071435.3,286047069.7,N,0.0,0.0
1478071455.1,286047073.2,N,0.0,0.0
1478071456.0,286047073.2,N,0.0,0.0
1478071475.8,286047071.4,N,0.0,0.0
1478071495.7,286047068.5,N,0.0,0.0
1478071515.5,286047068.9,N,0.0,0.0
1478071535.3,286047068.3,N,0.0,0.0
1478071555.2,286047067.7,N,0.0,0.0
1478071575.9,286047067.2,N,0.0,0.0
1478071595.7,286047068.8,N,0.0,0.0
1478071615.6,286047070.9,N,0.0,0.0
1478071635.4,286047071.4,N,0.0,0.0
1478071655.2,286047071.2,N,0.0,0.0
1478071675.1,286047070.8,N,0.0,0.0
1478071676.0,286047070.8,N,0.0,0.0
1478071695.8,286047071.1,N,0.0,0.0
1478071715.7,286047067.7,N,0.0,0.0
1478071735.5,286047069.3,N,0.0,0.0
1478071755.3,286047067.4,N,0.0,0.0
1478071775.2,286047069.2,N,0.0,0.0
1478071795.9,286047070.0,N,0.0,0.0
1478071815.7,286047069.8,N,0.0,0.0
1478071835.6,286047070.3,N,0.0,0.0
1478071855.4,286047071.4,N,0.0,0.0
1478071875.2,286047071.2,N,0.0,0.0
1478071895.1,286047072.9,N,0.0,0.0
1478071896.0,286047072.9,N,0.0,0.0
1478071915.8,286047071.0,N,0.0,0.0
1478071935.6,286047069.5,N,0.0,0.0
1478071955.5,286047066.9,N,0.0,0.0
1478071975.3,286047069.2,N,0.0,0.0
1478071995.1,286047070.4,N,0.0,0.0
1478072015.9,286047071.6,N,0.0,0.0
1478072035.7,286047070.2,N,0.0,0.0
1478072055.6,286047071.1,N,0.0,0.0
1478072075.4,286047072.0,N,0.0,0.0
1478072095.2,286047072.6,N,0.0,0.0
1478072115.1,286047070.2,N,0.0,0.0
1478072116.0,286047070.2,N,0.0,0.0
1478072135.8,286047070.2,N,0.0,0.0
1478072155.6,286047073.1,N,0.0,0.0
1478072175.5,286047072.7,N,0.0,0.0
1478072195.3,286047068.9,N,0.0,0.0
1478072215.1,286047065.5,N,0.0,0.0
1478072235.9,286047070.6,N,0.0,0.0
1478072255.7,286047072.6,N,0.0,0.0
1478072275.5,286047070.7,N,0.0,0.0
1478072295.4,286047073.0,N,0.0,0.0
1478072315.2,286047069.2,N,0.0,0.0
1478072335.0,286047068.8,N,0.0,0.0
1478072335.9,286047068.8,N,0.0,0.0
1478072355.8,286047069.0,N,0.0,0.0
1478072375.6,286047071.2,N,0.0,0.0
1478072395.5,286047071.7,N,0.0,0.0
1478072415.3,286047071.3,N,0.0,0.0
1478072435.1,286047070.1,N,0.0,0.0
1478072455.9,286047073.7,N,0.0,0.0
1478072475.7,286047074.7,N,0.0,0.0
1478072495.5,286047076.0,N,0.0,0.0
1478072515.4,286047072.7,N,0.0,0.0
1478072535.2,286047065.8,N,0.0,0.0
1478072555.0,286047068.8,N,0.0,0.0
1478072555.9,286047068.8,N,0.0,0.0
1478072575.8,286047070.7,N,0.0,0.0
1478072595.6,286047072.7,N,0.0,0.0
1478072615.4,286047073.1,N,0.0,0.0
1478072635.3,286047070.3,N,0.0,0.0
1478072655.1,286047072.5,N,0.0,0.0
1478072675.9,286047074.3,N,0.0,0.0
1478072695.7,286047073.5,N,0.0,0.0
1478072715.5,286047072.1,N,0.0,0.0
1478072735.4,286047071.7,N,0.0,0.0
1478072755.2,286047075.2,N,0.0,0.0
1478072775.0,286047072.4,N,0.0,0.0
1478072775.9,286047072.4,N,0.0,0.0
1478072795.8,286047073.9,N,0.0,0.0
1478072815.6,286047071.9,N,0.0,0.0
1478072835.4,286047072.4,N,0.0,0.0
1478072855.3,286047074.7,N,0.0,0.0
1478072875.1,286047074.0,N,0.0,0.0
1478072895.8,286047074.3,N,0.0,0.0
1478072915.7,286047073.9,N,0.0,0.0
1478072935.5,286047073.7,N,0.0,0.0
1478072955.3,286047073.2,N,0.0,0.0
1478072975.2,286047073.9,N,0.0,0.0
1478072995.0,286047075.5,N,0.0,0.0
1478072995.9,286047075.5,N,0.0,0.0
1478073015.8,286047076.5,N,0.0,0.0
1478073035.6,286047077.7,N,0.0,0.0
1478073055.4,286047079.5,N,0.0,0.0
1478073075.3,286047080.0,N,0.0,0.0
1478073095.1,286047082.2,N,0.0,0.0
1478073096.0,286047082.2,N,0.0,0.0
1478073115.8,286047081.6,N,0.0,0.0
1478073135.7,286047082.2,N,0.0,0.0
1478073155.5,286047081.0,N,0.0,0.0
1478073175.3,286047073.5,N,0.0,0.0
1478073195.2,286047075.8,N,0.0,0.0
1478073215.0,286047075.8,N,0.0,0.0
1478073215.9,286047075.8,N,0.0,0.0
1478073235.7,286047078.0,N,0.0,0.0
1478073255.6,286047073.6,N,0.0,0.0
1478073275.4,286047077.4,N,0.0,0.0
1478073295.3,286047076.7,N,0.0,0.0
1478073315.1,286047079.3,N,0.0,0.0
1478073316.0,286047079.3,N,0.0,0.0
1478073335.8,286047079.1,N,0.0,0.0
1478073355.7,286047078.8,N,0.0,0.0
1478073375.5,286047073.3,N,0.0,0.0
1478073395.3,286047079.0,N,0.0,0.0
1478073415.2,286047076.8,N,0.0,0.0
1478073435.9,286047078.9,N,0.0,0.0
1478073455.7,286047080.0,N,0.0,0.0
1478073475.6,286047079.1,N,0.0,0.0
1478073495.4,286047077.4,N,0.0,0.0
1478073515.2,286047075.8,N,0.0,0.0
1478073535.1,286047076.7,N,0.0,0.0
1478073536.0,286047076.7,N,0.0,0.0
1478073555.8,286047075.6,N,0.0,0.0
1478073575.6,286047073.7,N,0.0,0.0
1478073595.5,286047073.8,N,0.0,0.0
